{"data":{"norad_id":68308,"intl_designator":"2026-057Q","name":"STARLINK-37138","alt_names":[],"object_type":"PAYLOAD","status":"ACTIVE","operator":null,"country":"US","launch_date":"2026-03-20","launch_site_code":"AFWTR","launch_vehicle":null,"mission":null,"orbit_class":"UNKNOWN","rcs_meters":null,"size_class":null,"mass_kg":null,"dimensions":null,"purposes":["comms"],"wikipedia_slug":null,"has_3d_model":false,"image_url":null,"decayed_at":null,"tle_current":{"epoch":"2026-09-19T13:38:13.684416Z","epoch_age_seconds":128914,"freshness":"FRESH","line1":"1 68308U 26057Q   26262.56821394  .00028135  00000+0  87026-3 0  9995","line2":"2 68308  97.2882  28.0158 0001152  64.9003 295.2359 15.33456221 28375","mean_motion":15.33456221,"eccentricity":0.0001152,"inclination_deg":97.2882,"raan_deg":28.0158,"arg_perigee_deg":64.9003,"mean_anomaly_deg":295.2359,"bstar":0.00087026,"rev_number":2837,"period_min":93.905517502218,"perigee_km":464.72140077028,"apogee_km":466.29817699044,"semimajor_km":6843.6467888804,"source":"CELESTRAK","updated_at":"2026-09-20T09:00:43.878597Z"}}}